sat.trackr.live / text

‹ back to catalog

STARLINK-31941

NORAD 59866 · 2024-098J

PAYLOAD ACTIVE UNKNOWN

§ Identity

Operator
Country
US
Launch date
2024-05-24
Launch site
AFETR
Launch vehicle
Mass (kg)
RCS (m²)

Purposes: comms

External: N2YO · Heavens-Above · Gunter

§ Orbital elements

Epoch: 2026-09-21T07:16:42.273120Z

Period
94.27 min
Inclination
43.0028°
Eccentricity
0.0000788
Mean motion
15.27571402 rev/d
Perigee alt
482.5 km
Apogee alt
483.6 km
Semi-major
6,861.2 km
B*
-2.2633e-5
RAAN
235.5288°
Arg perigee
273.6507°
Mean anomaly
86.4255°
Rev number
13,196

§ Raw data

STARLINK-319411 59866U 24098J   26264.30326705 -.00000884  00000+0 -22633-4 0  99942 59866  43.0028 235.5288 0000788 273.6507  86.4255 15.27571402131963

JSON: /api/v1/satellites/59866 · /tle

For live sub-satellite position, see the globe view (requires WebGL).

§ Visibility from observer

Set your observer location to see the next 7 days of passes ≥ 10°. The values pass through the URL so the page stays shareable.

No JS? Fill the form by hand. The geolocation button needs JavaScript.